Location: Jaite
(41.2884°N, 81.5737°W)
Time: 06:54:00
(UTC+00:00)

Cosmos 2369 Rocket - Pass Details

Date: 15 November 2025
Orbit: 826 x 853 km, 71.0° (Epoch: 13 December)

Event Time Altitude Azimuth Distance (km) Brightness Sun altitude
Exits shadow 10:28:55 - 343° (NNW) 2,889 4.7 -19.9°
Reaches altitude 10° 10:30:03 10° 346° (NNW) 2,478 4.4 -19.7°
Maximum altitude 10:35:34 49° 61° (ENE) 1,082 3.1 -18.7°
Drops below altitude 10° 10:41:04 10° 136° (SE) 2,474 5.4 -17.6°
Sets 10:43:36 0° 142° (SE) 3,407 6.1 -17.2°
